N150QR KGCN-KSDF

Flight info

Callsign N150QR
Flight time N/A
Altitude 45000
Route GRAND4 BISOP BAVPE J72 GUP J96 CIM Q176 TOTOE MAKES SGF MOOCH MBELL5
Aircraft C700/L-VGDW/C

Departure

Time N/A
Airport Grand Canyon National Park Airport (KGCN)

Arrival

Time 2026-05-04 21:41
Airport Louisville Muhammad Ali International Airport (KSDF)
Time Latitude Longitude Altitude Speed Heading
2026-05-04 21:35 38.31665 -85.89110 4783 ft 245 kts 47°
2026-05-04 21:35 38.32789 -85.87582 4386 ft 231 kts 47°
2026-05-04 21:36 38.33839 -85.86083 4089 ft 215 kts 57°
2026-05-04 21:36 38.34206 -85.84370 3807 ft 196 kts 103°
2026-05-04 21:36 38.33626 -85.82953 3589 ft 174 kts 144°
2026-05-04 21:36 38.32740 -85.81942 3437 ft 174 kts 146°
2026-05-04 21:37 38.31858 -85.80847 3289 ft 178 kts 144°
2026-05-04 21:37 38.30974 -85.79745 3171 ft 179 kts 144°
2026-05-04 21:37 38.30087 -85.78643 3025 ft 179 kts 144°
2026-05-04 21:37 38.29183 -85.77517 2746 ft 183 kts 144°
2026-05-04 21:38 38.28224 -85.76532 2379 ft 171 kts 158°
2026-05-04 21:38 38.27254 -85.76045 2217 ft 127 kts 173°
2026-05-04 21:38 38.26437 -85.75783 2059 ft 124 kts 176°
2026-05-04 21:38 38.25593 -85.75492 1897 ft 124 kts 173°
2026-05-04 21:39 38.24768 -85.75204 1748 ft 123 kts 174°
2026-05-04 21:39 38.23951 -85.74927 1583 ft 122 kts 173°
2026-05-04 21:39 38.23079 -85.74634 1431 ft 130 kts 171°
2026-05-04 21:39 38.22242 -85.74333 1265 ft 125 kts 169°
2026-05-04 21:40 38.21418 -85.74061 1082 ft 119 kts 170°
2026-05-04 21:40 38.20632 -85.73788 917 ft 119 kts 168°
2026-05-04 21:40 38.19826 -85.73501 753 ft 121 kts 171°
2026-05-04 21:40 38.19001 -85.73227 600 ft 125 kts 172°
2026-05-04 21:41 38.18179 -85.72939 485 ft 108 kts 172°
2026-05-04 21:41 38.17712 -85.72787 486 ft 40 kts 164°
2026-05-04 21:41 38.17521 -85.72706 484 ft 19 kts 138°
2026-05-04 21:41 38.17530 -85.72571 483 ft 18 kts 20°
2026-05-04 21:42 38.17664 -85.72607 479 ft 21 kts 345°
2026-05-04 21:42 38.17817 -85.72660 477 ft 25 kts 345°
2026-05-04 21:42 38.17993 -85.72719 478 ft 27 kts 345°
2026-05-04 21:42 38.18172 -85.72780 480 ft 22 kts 346°
2026-05-04 21:43 38.18308 -85.72779 480 ft 15 kts 19°
2026-05-04 21:43 38.18347 -85.72666 484 ft 9 kts 75°
2026-05-04 21:43 38.18331 -85.72651 478 ft 4 kts 174°
2026-05-04 21:43 38.18325 -85.72649 476 ft 0 kts 165°